This is the latest recevied weather packets stored in our database for station/object K5KHP. If no packets are shown the sender has not sent any weather packets the latest 1 day(s).
| Time | Temp. | Humidity | Pressure | Rain* | Wind** | Luminosity | Snow |
|---|---|---|---|---|---|---|---|
| 1778024998 | 17.78° C | 74% | 1013.4 hPa | 0 mm | 1.34 m/s, 207° | 130 W/m² | - |
| 1778024696 | 18.33° C | 73% | 1013.1 hPa | 0 mm | 0.45 m/s, 204° | 123 W/m² | - |
| 1778024392 | 18.33° C | 70% | 1013.3 hPa | 0 mm | 0.45 m/s, 283° | 123 W/m² | - |
| 1778024090 | 18.33° C | 69% | 1013.3 hPa | 0 mm | 0 m/s | 127 W/m² | - |
| 1778023787 | 18.89° C | 68% | 1013.2 hPa | 0 mm | 0.45 m/s, 274° | 141 W/m² | - |
| 1778023485 | 18.89° C | 67% | 1013.3 hPa | 0 mm | 1.34 m/s, 251° | 157 W/m² | - |
| 1778023182 | 18.89° C | 68% | 1013.3 hPa | 0 mm | 1.34 m/s, 259° | 177 W/m² | - |
| 1778022879 | 19.44° C | 66% | 1013.1 hPa | 0 mm | 0.45 m/s, 255° | 223 W/m² | - |
| 1778022577 | 19.44° C | 66% | 1013.4 hPa | 0 mm | 0 m/s | 472 W/m² | - |
| 1778022275 | 19.44° C | 64% | 1013.2 hPa | 0 mm | 0 m/s | 490 W/m² | - |
| 1778021971 | 18.89° C | 66% | 1013.1 hPa | 0 mm | 0.89 m/s, 220° | 452 W/m² | - |
| 1778021668 | 18.89° C | 67% | 1013.4 hPa | 0 mm | 1.34 m/s, 224° | 474 W/m² | - |
| 1778021363 | 18.89° C | 67% | 1013.5 hPa | 0 mm | 2.24 m/s, 279° | 293 W/m² | - |
| 1778021061 | 18.89° C | 67% | 1013.3 hPa | 0 mm | 1.34 m/s, 268° | 379 W/m² | - |
| 1778020758 | 18.33° C | 68% | 1013.2 hPa | 0 mm | 1.79 m/s, 246° | 253 W/m² | - |
| 1778020455 | 18.89° C | 68% | 1013.4 hPa | 0 mm | 1.79 m/s, 253° | 253 W/m² | - |
| 1778020151 | 18.33° C | 67% | 1013.6 hPa | 0 mm | 0.45 m/s, 258° | 256 W/m² | - |
| 1778019848 | 18.89° C | 65% | 1013.4 hPa | 0 mm | 0.89 m/s, 261° | 296 W/m² | - |
| 1778019544 | 18.89° C | 65% | 1013.7 hPa | 0 mm | 0 m/s | 271 W/m² | - |
| 1778019241 | 18.89° C | 63% | 1013.5 hPa | 0 mm | 3.13 m/s, 250° | 269 W/m² | - |
| 1778018938 | 18.89° C | 62% | 1013.5 hPa | 0 mm | 2.24 m/s, 271° | 229 W/m² | - |
| 1778018635 | 18.33° C | 63% | 1013.6 hPa | 0 mm | 0.89 m/s, 263° | 196 W/m² | - |
| 1778018333 | 18.33° C | 60% | 1013.8 hPa | 0 mm | 0.89 m/s, 279° | 201 W/m² | - |
| 1778018031 | 18.33° C | 63% | 1014 hPa | 0 mm | 2.24 m/s, 263° | 217 W/m² | - |
| 1778017729 | 18.89° C | 62% | 1013.8 hPa | 0 mm | 0.45 m/s, 293° | 233 W/m² | - |
* Rain latest hour (hover to see other rain measurements)
** Current wind speed in m/s (hover to see current wind gust speed)